Temp
16 16 17 17 17 17 17 17 17 17 18 18 18 18 18 18 19 19 19 19 19 19 19 19 19 19 19 19 19 20 20 21 22 21 20 18 17 17 18 18 18 19 19 20 21 22 23 24 24 23 24 24 24 23 23 23 22 22 23 22 22 22 22 21 21 21 20 20 20 21 20 19 19 19 19 20 19 19 19 18 17 17 16 15 15 14 15 15
16 16 17 17 17 17 17 17 17 18 18 18 18 18 18 19 19 19 19 19 19 19 19 19 19 19 19 19 19 20 20 21 23 21 19 17 18 18 18 18 18 19 19 20 21 22 23 24 24 24 24 24 23 23 22 22 22 22 23 23 22 22 21 20 20 20 19 19 19 20 19 19 18 18 19 19 19 18 16 15 15 15 14 14 14 14 14 13
16 16 17 17 17 17 17 17 18 18 18 18 18 18 18 19 19 19 19 19 19 19 19 19 19 19 19 19 19 20 19 21 23 21 19 18 18 18 18 19 19 19 19 19 20 21 22 22 23 24 24 24 23 23 23 22 22 22 23 23 22 21 21 20 19 19 18 18 19 19 19 18 18 18 18 18 18 16 14 13 13 13 13 13 13 13 13 13
16 16 17 17 17 17 17 18 18 18 18 18 18 18 18 19 19 19 19 19 19 19 19 19 19 19 19 19 19 19 19 21 21 20 19 18 18 19 19 19 19 19 19 19 19 20 21 22 23 24 24 23 23 23 23 21 21 22 22 21 21 21 21 19 19 18 18 18 18 19 19 18 18 18 18 18 17 14 13 13 12 12 12 12 12 13 13 12
16 16 17 17 17 17 18 18 18 18 18 18 18 18 18 19 19 19 19 19 19 19 19 19 20 20 19 19 19 19 20 21 20 20 19 18 19 19 19 19 19 19 19 19 20 21 22 23 24 23 23 23 22 22 22 21 21 21 21 20 20 20 20 19 19 17 17 18 18 18 18 18 18 17 16 16 15 13 13 12 12 12 12 12 12 12 12 12
16 17 17 17 17 17 18 18 18 18 19 19 19 19 19 19 19 19 19 20 19 20 20 19 20 20 19 20 19 19 21 20 20 19 18 18 19 19 20 19 19 19 19 20 21 22 23 24 23 23 23 22 22 22 21 21 21 20 20 19 19 20 19 19 18 16 16 18 18 18 17 18 18 16 15 15 14 13 13 12 12 12 12 12 12 12 11 11
17 17 17 18 17 17 18 18 19 19 19 19 19 19 19 19 19 20 20 20 19 20 20 19 20 20 20 20 20 21 21 20 19 18 18 18 19 20 20 20 19 19 20 21 22 23 23 23 23 23 23 22 21 21 20 21 21 20 20 19 19 19 19 18 17 16 16 17 17 18 17 18 18 16 15 15 14 13 13 13 12 12 12 12 11 11 11 11
17 17 17 17 17 18 18 19 19 19 19 19 19 19 19 19 19 20 20 20 19 20 20 20 20 20 20 20 20 22 21 19 19 17 17 19 19 19 20 20 20 20 21 21 22 23 22 23 23 22 22 21 21 20 19 20 21 20 19 19 18 19 19 18 17 17 17 17 18 18 18 18 17 16 15 15 14 14 13 13 13 12 12 11 11 10 10 10
17 17 17 17 18 18 19 19 19 19 19 19 19 19 19 19 19 20 20 19 20 20 20 20 20 20 20 20 22 22 19 18 18 17 18 19 19 19 20 20 20 21 22 21 22 22 22 22 22 22 22 20 21 20 19 20 20 19 18 19 19 19 18 18 18 18 17 18 19 19 18 17 17 17 15 15 14 14 14 13 12 12 11 11 10 10 10 10
17 17 17 18 18 19 19 19 19 19 19 19 19 19 19 19 19 20 20 20 20 20 20 20 21 21 21 22 23 21 18 18 18 17 18 18 19 19 20 20 20 21 22 21 21 21 21 21 22 22 22 20 20 19 19 19 19 18 18 18 19 19 18 19 19 18 18 18 18 19 18 17 18 17 15 14 15 14 14 13 12 12 11 11 10 10 10 10
17 17 18 18 19 19 19 19 19 19 19 19 19 19 19 19 20 20 20 20 20 20 20 20 21 21 22 22 22 20 18 18 17 17 18 18 19 19 19 19 20 21 23 21 20 19 20 20 21 21 21 21 20 19 18 18 17 17 17 17 18 18 18 19 19 18 18 18 18 18 18 17 17 16 15 15 15 14 13 12 12 12 11 11 10 10 10 10
17 18 18 19 19 19 19 19 19 19 19 19 19 19 19 20 20 20 20 20 20 20 20 21 21 21 22 21 19 18 18 18 17 17 17 18 18 18 19 19 19 21 22 21 19 18 18 19 20 20 20 20 20 19 18 17 17 18 17 18 19 18 18 19 19 19 19 18 17 18 18 17 15 15 15 15 15 14 13 12 12 11 11 11 10 10 10 10
18 18 19 19 19 19 19 19 19 19 19 19 19 19 19 20 20 20 20 20 20 20 20 21 21 21 21 20 19 18 18 17 18 17 17 18 18 18 18 18 19 19 20 20 19 18 18 19 20 19 18 20 19 18 17 17 17 18 18 20 20 19 19 19 18 19 19 18 17 17 17 16 14 14 15 15 15 14 13 12 12 11 11 11 10 10 10 10
18 19 19 19 19 19 19 19 19 19 19 19 19 19 19 21 21 21 21 20 20 20 20 21 21 21 21 20 19 19 18 18 18 18 18 18 19 19 19 19 19 19 19 19 18 18 18 18 19 19 18 19 18 17 18 18 19 20 19 20 21 20 20 19 17 19 19 18 18 17 17 16 14 13 14 14 14 13 12 11 11 11 11 10 10 10 10 10
19 19 19 19 19 19 19 19 19 19 19 19 19 19 20 21 21 21 21 20 20 21 21 21 21 22 22 20 20 19 18 19 18 18 17 17 19 20 19 19 19 18 18 18 18 18 18 19 19 20 19 17 17 18 20 21 21 21 20 20 20 19 20 19 17 17 18 18 19 18 18 16 13 13 13 13 13 13 12 11 11 10 10 10 10 10 10 10
19 19 19 19 19 19 19 19 20 20 20 19 19 19 20 21 21 21 21 21 21 21 21 21 21 22 21 20 20 20 19 19 18 18 18 17 18 20 19 19 19 19 19 18 18 18 19 20 18 19 20 18 19 20 21 22 21 21 20 19 19 18 19 20 18 17 17 17 18 19 18 15 13 12 12 13 13 12 11 11 10 10 10 10 10 10 10 9
19 19 19 19 19 19 19 20 20 20 20 20 20 19 20 21 21 21 21 21 21 21 21 21 21 22 21 20 20 20 19 19 18 18 18 18 18 19 19 20 21 21 20 20 20 20 20 21 19 19 20 19 19 21 21 19 18 19 19 19 19 18 19 19 19 17 17 17 17 18 16 14 13 12 12 12 12 12 11 10 10 10 10 10 10 10 9 9
19 19 19 19 19 19 20 20 20 20 21 21 20 20 20 20 21 20 20 21 21 21 22 21 20 21 20 20 19 19 19 19 18 18 19 18 18 18 19 20 21 21 22 21 21 21 21 22 21 20 19 18 17 18 19 17 16 17 17 17 18 18 18 19 19 17 16 16 17 17 15 13 12 12 11 11 11 11 10 10 10 10 10 10 9 9 9 9
19 19 19 19 19 20 20 21 21 21 21 21 21 21 20 21 21 20 19 20 20 20 20 19 19 20 19 19 18 18 19 18 18 19 19 18 18 18 19 20 21 22 22 22 21 20 20 20 20 18 17 16 15 15 15 16 16 16 16 16 16 17 18 19 19 16 14 15 16 17 15 14 12 11 11 11 11 11 10 10 10 10 10 9 9 9 9 9
19 19 19 19 19 20 20 21 21 21 22 22 21 21 21 22 22 20 18 18 18 18 18 18 18 19 19 18 18 18 18 19 19 20 18 17 18 19 21 22 22 22 20 19 19 20 20 18 16 16 15 15 14 14 14 14 15 15 16 16 17 18 18 19 18 15 14 15 16 16 14 13 12 11 11 10 10 10 10 10 9 9 9 9 9 8 8 8
19 19 19 19 20 20 20 21 21 21 21 21 21 22 21 21 21 19 18 17 17 17 18 17 18 19 18 18 17 16 17 20 21 20 18 18 19 20 21 22 22 21 20 18 18 20 20 17 15 15 14 14 14 13 13 14 14 15 16 17 17 18 17 18 17 15 14 14 16 16 14 13 12 11 10 10 10 10 9 9 9 9 9 9 9 8 8 8
19 19 19 19 20 20 20 20 21 21 21 21 21 21 19 18 18 18 18 19 17 17 18 18 18 19 18 17 17 16 17 19 20 20 17 18 20 20 20 21 21 20 20 19 19 20 19 16 15 15 14 13 13 14 14 14 14 15 17 17 17 17 16 17 17 15 14 14 15 16 15 14 12 10 10 10 10 9 9 9 8 9 8 8 8 8 8 8
19 19 20 20 20 20 20 20 21 21 21 20 20 19 18 17 17 17 19 20 18 17 18 18 18 18 18 18 17 17 18 17 18 18 16 17 19 18 18 20 20 19 20 20 20 19 18 16 15 14 13 13 14 15 15 15 15 16 17 16 15 16 15 15 16 15 15 15 15 15 15 14 11 10 10 9 9 9 8 9 8 8 8 8 8 8 8 7
19 20 20 20 20 20 20 20 20 20 20 19 18 18 17 17 18 18 19 21 20 18 18 17 17 18 17 17 16 17 18 17 17 17 16 16 17 17 17 17 18 19 17 18 18 18 17 16 14 13 13 14 15 16 15 15 17 17 16 15 15 15 14 14 15 15 16 14 12 13 15 15 12 10 10 9 9 9 8 9 9 8 8 8 8 8 8 7
19 20 20 20 20 20 20 21 20 19 19 19 17 17 17 18 18 17 19 21 20 19 18 17 18 18 16 17 17 16 17 17 16 16 15 15 15 17 17 15 17 19 16 17 18 17 16 15 13 14 15 15 16 16 14 14 17 17 15 15 14 14 13 14 14 14 16 15 13 13 15 16 14 12 11 10 9 9 9 9 9 9 8 8 8 8 8 7
19 20 20 20 20 20 21 21 20 19 19 18 17 17 17 18 17 17 19 22 20 19 19 19 19 18 17 18 18 16 16 17 17 16 16 14 13 15 17 17 17 17 15 16 17 17 16 15 14 15 16 16 17 16 14 13 15 16 16 15 14 14 13 13 14 13 15 16 15 14 14 15 15 14 13 10 9 9 9 9 9 9 8 8 8 8 7 7
19 20 20 20 20 21 21 21 20 20 19 18 17 17 17 17 18 17 20 21 20 18 19 20 19 19 18 18 18 17 18 18 17 18 17 15 14 15 17 17 17 16 14 14 17 17 16 15 15 15 16 17 17 16 14 13 14 15 16 15 14 14 13 13 13 13 15 16 15 15 15 14 15 15 13 11 10 9 9 9 9 8 8 8 8 8 7 7
20 20 20 20 20 21 21 21 20 19 19 18 17 17 17 17 17 18 20 20 19 19 18 18 19 18 18 18 18 18 17 16 17 18 17 15 15 17 18 17 16 16 13 14 17 16 14 15 14 14 16 17 15 15 14 12 13 15 16 14 14 13 13 13 13 14 15 15 15 16 15 13 14 15 12 9 10 10 9 9 9 8 8 8 8 7 7 7
20 20 20 20 20 21 20 20 20 18 18 18 18 17 17 17 18 20 21 19 18 19 18 18 19 17 16 18 18 17 16 16 16 17 17 16 16 17 16 14 15 16 15 16 18 15 14 13 12 13 15 15 14 14 14 12 13 15 15 14 14 13 12 13 13 14 15 14 15 16 15 13 12 14 13 10 11 11 9 9 9 8 8 7 7 7 7 7
19 20 20 20 20 20 20 20 19 18 18 17 17 17 16 18 19 21 21 19 18 18 17 17 17 16 16 18 19 17 16 16 15 16 17 17 17 17 14 12 14 16 16 17 17 15 13 11 10 12 13 13 13 13 13 13 13 14 14 15 16 15 14 14 14 15 15 14 15 15 14 12 11 13 14 11 9 8 7 8 8 8 7 7 7 7 7 6
19 19 20 20 20 19 20 19 18 17 17 17 17 17 17 20 21 21 19 17 17 17 17 16 15 15 15 16 17 16 16 16 15 15 16 17 17 16 15 13 14 17 18 18 16 14 13 12 12 12 12 12 13 14 13 12 13 14 14 15 15 15 16 16 16 16 14 14 15 15 14 12 11 13 12 8 6 6 6 7 7 7 7 7 7 6 6 6
19 19 20 20 19 19 19 18 17 17 17 17 17 18 20 21 20 19 18 17 17 16 15 14 14 14 14 14 15 15 14 16 16 15 14 16 16 13 14 14 13 15 18 18 17 16 15 15 14 12 11 12 13 15 14 13 14 15 14 14 13 13 14 13 14 14 13 13 14 14 13 11 12 13 10 7 7 7 7 7 7 7 7 7 6 6 6 5
18 19 19 19 19 18 17 17 17 17 17 17 17 20 22 21 19 17 17 17 16 14 13 12 14 14 14 15 15 13 14 14 15 15 14 16 16 13 12 13 12 14 16 17 17 17 16 15 14 13 13 13 13 15 15 14 15 14 13 13 12 11 11 10 12 12 12 13 13 14 12 11 12 12 9 8 8 7 7 7 8 7 7 6 6 6 5 5
18 18 18 18 17 17 16 17 17 17 17 17 19 22 21 20 17 15 16 17 15 13 13 12 13 14 15 15 14 13 14 14 13 15 16 16 17 15 14 13 12 12 14 15 15 15 16 16 15 15 14 13 13 13 12 12 14 14 14 13 12 11 10 9 11 11 10 11 12 12 11 11 12 10 9 9 8 8 8 8 8 7 7 6 6 5 5 4
18 18 18 18 17 16 16 17 17 17 17 18 21 22 20 19 17 16 16 16 14 13 14 12 13 16 17 16 14 12 13 14 13 14 15 16 15 14 13 13 12 11 12 15 14 13 16 16 14 13 13 13 13 11 11 11 13 14 14 13 11 11 10 10 11 11 10 10 10 12 12 12 12 9 8 8 8 9 9 9 9 7 6 6 5 5 4 4
18 18 18 17 17 17 17 17 18 17 17 20 21 19 17 17 16 17 15 13 13 13 14 14 14 17 19 17 15 13 12 13 14 14 15 14 13 13 12 11 11 10 11 13 13 13 15 16 15 13 12 12 11 11 11 11 13 14 13 11 11 11 10 10 10 10 10 9 10 11 11 11 11 9 8 9 9 9 9 8 8 7 6 5 4 4 4 3
18 18 17 17 17 17 17 17 18 18 18 21 20 17 15 14 14 14 12 11 11 10 13 17 16 15 18 18 17 15 13 13 14 15 16 14 13 12 12 11 10 10 10 10 12 12 12 14 15 14 13 11 9 10 11 11 12 13 11 10 11 11 10 10 9 9 9 8 9 10 9 9 9 9 9 9 9 8 8 8 7 5 5 4 4 4 3 3
18 18 17 17 17 17 18 18 18 19 20 19 16 15 14 13 12 11 10 10 10 10 14 18 16 14 16 17 16 14 13 14 15 16 16 15 13 11 11 11 10 10 9 8 11 12 11 13 15 15 14 11 9 10 12 11 12 12 11 10 10 9 9 10 9 7 7 6 7 8 8 8 9 9 8 8 8 7 7 7 5 4 4 3 3 3 3 3
18 19 19 17 17 18 18 18 18 20 21 19 16 15 14 12 10 9 9 9 10 11 15 16 14 14 14 15 15 13 12 14 15 16 16 15 14 11 9 10 10 10 10 9 11 12 11 13 14 14 15 13 12 13 13 12 11 11 11 11 10 9 9 9 8 7 6 6 6 6 6 7 9 9 8 7 7 7 6 6 5 4 4 3 3 3 2 2
18 20 20 17 18 18 18 18 19 19 19 17 16 15 13 12 10 8 8 8 10 12 14 15 14 14 15 13 13 13 12 13 14 15 16 14 13 11 8 8 8 9 9 9 10 11 12 12 13 14 16 15 14 13 12 12 11 11 11 9 8 9 8 8 8 7 6 6 5 4 5 6 8 9 8 8 7 7 6 5 4 4 3 3 3 2 2 2
18 21 20 18 18 19 19 18 17 16 16 16 15 13 11 11 11 9 7 6 9 10 11 12 13 14 14 14 13 13 13 14 14 15 15 14 13 12 7 4 5 6 8 10 10 10 11 12 12 13 14 15 13 10 10 11 11 10 10 8 7 7 7 7 7 7 6 5 5 4 3 5 8 9 8 8 7 6 6 5 4 4 3 3 2 2 2 2
20 21 19 18 18 18 19 17 14 15 16 14 12 11 10 11 11 10 8 7 8 10 10 11 12 13 13 14 14 13 13 14 15 14 14 13 12 11 5 2 2 3 6 10 11 9 9 11 12 12 13 13 10 8 9 9 10 9 8 8 8 7 6 6 6 6 5 5 5 4 3 5 8 9 8 7 7 6 5 4 4 3 2 2 2 2 2 2
20 20 18 18 18 18 19 18 15 14 13 10 10 10 9 11 11 10 10 10 10 11 12 12 12 12 12 12 12 13 13 13 14 14 13 13 10 7 3 2 2 4 6 10 11 8 8 11 12 12 14 12 8 8 8 8 8 8 7 7 7 6 5 5 5 4 4 4 4 4 3 5 8 8 7 7 6 5 5 4 3 2 2 2 1 1 1 2
18 19 19 18 18 19 19 18 16 14 12 11 11 11 9 10 11 11 11 11 11 11 12 13 12 11 11 11 11 13 12 12 14 12 12 13 9 3 2 2 2 5 7 8 7 7 8 12 12 11 12 11 10 10 9 8 9 9 7 5 5 5 4 4 3 3 3 4 4 3 2 4 7 7 7 6 5 5 4 4 3 2 2 1 1 1 1 1
18 19 20 18 18 18 17 15 16 14 12 13 13 12 11 11 10 10 11 11 10 10 11 12 11 11 11 10 11 12 11 12 13 11 10 11 9 3 2 1 2 5 6 3 3 4 8 12 12 10 10 10 10 10 10 10 10 10 7 4 4 4 3 3 4 3 3 4 4 2 2 4 5 6 5 5 4 4 3 3 2 1 1 1 1 1 1 1
20 21 20 19 18 16 14 14 15 15 13 14 14 12 13 13 11 9 9 11 10 9 11 11 10 10 11 11 12 13 12 11 11 11 11 11 9 6 4 2 2 4 3 1 0 3 8 11 11 10 9 9 10 10 10 11 9 9 8 5 3 3 2 3 3 3 3 2 2 2 3 3 4 4 4 4 3 3 2 2 1 1 1 1 0 0 0 1
20 18 17 18 18 17 16 15 15 15 14 15 15 12 12 14 13 10 10 10 9 9 11 11 11 12 13 12 13 14 13 12 11 10 10 9 9 8 5 3 4 3 2 1 1 4 9 11 9 9 9 9 9 9 9 10 9 8 8 6 4 3 2 2 2 3 3 1 1 3 3 2 2 3 3 3 3 2 2 1 1 1 0 0 0 -0 -0 -0
17 16 13 14 16 17 16 15 13 13 14 14 13 12 13 14 13 13 11 10 10 10 11 13 12 12 12 11 12 14 14 13 12 10 9 8 8 8 7 6 6 4 3 4 4 4 8 10 8 7 7 8 8 9 9 9 8 8 7 6 5 3 2 2 2 2 2 1 1 3 3 2 2 3 3 3 2 2 1 1 1 0 -0 -0 -1 -1 -1 -1
15 15 12 11 13 12 11 11 12 13 14 13 13 12 13 14 14 12 11 11 12 11 11 14 13 12 11 11 11 13 13 13 12 10 9 8 7 8 9 8 7 6 5 7 5 3 7 9 7 5 6 7 8 9 9 8 8 7 6 5 5 4 3 2 2 3 2 2 2 2 2 2 2 3 3 3 2 2 1 1 0 -0 -1 -1 -1 -1 -1 -1
16 16 14 13 13 10 9 10 12 15 15 14 15 13 12 14 14 12 10 11 14 13 12 13 13 11 10 10 11 12 12 11 11 10 8 8 8 8 9 9 8 7 7 7 5 4 6 8 6 4 6 8 9 9 9 8 7 6 5 5 4 4 4 3 2 3 2 2 2 2 1 1 3 3 2 2 2 1 1 0 -0 -1 -1 -1 -2 -2 -2 -2
15 15 15 17 15 11 11 12 13 16 18 16 16 13 12 14 13 12 12 10 11 13 12 12 12 10 9 10 11 12 10 9 9 9 8 8 8 8 8 8 7 8 8 6 4 5 6 7 6 5 6 9 10 9 9 7 5 4 4 5 4 3 3 3 3 3 2 1 1 1 0 1 2 3 2 1 1 1 0 -0 -1 -1 -1 -2 -2 -2 -2 -2
13 14 15 18 16 12 12 14 15 17 16 14 12 12 12 12 11 11 13 11 9 10 10 10 11 11 11 11 10 9 8 7 7 7 7 7 8 7 7 6 5 6 7 5 4 4 4 6 7 6 6 9 10 9 8 6 4 4 5 4 4 3 3 3 3 3 2 2 1 0 1 1 2 1 0 0 0 -0 -0 -1 -1 -2 -2 -2 -2 -2 -3 -3
Height
804 804 804 804 804 803 803 803 802 802 802 801 801 800 800 799 798 798 798 797 797 796 796 795 794 793 793 792 792 792 790 789 790 790 790 793 793 792 790 788 786 784 783 781 780 778 777 775 775 775 774 774 775 776 777 777 778 778 779 781 780 779 783 787 788 790 791 790 788 785 786 790 790 787 786 784 784 787 787 790 793 793 795 798 799 797 794 791
804 804 804 804 804 804 804 803 803 803 802 802 801 801 800 799 799 798 798 797 797 796 796 795 794 793 792 792 792 791 791 789 789 790 792 793 792 791 789 787 785 784 783 781 780 778 776 775 775 775 773 774 776 777 778 778 778 779 779 779 781 784 788 789 790 793 794 795 792 787 788 790 792 791 788 787 787 790 795 799 800 800 801 802 801 800 798 795
804 804 804 804 804 804 804 803 803 803 803 803 802 801 800 799 799 798 798 798 797 796 795 795 794 792 791 791 791 791 791 789 789 791 792 793 791 790 788 786 785 784 783 782 781 780 778 777 776 774 773 775 777 777 778 780 780 779 779 780 785 787 788 791 793 795 796 795 792 789 789 790 793 791 789 789 789 796 804 806 806 806 806 805 804 803 801 799
804 805 805 805 805 805 804 804 804 804 803 803 802 801 800 799 799 799 798 798 797 797 796 795 793 792 791 790 790 791 791 790 792 794 793 792 790 788 787 786 784 783 782 782 781 780 779 777 775 774 775 777 778 777 779 782 782 780 783 786 789 788 789 794 795 796 796 794 793 790 789 791 793 792 791 789 791 802 809 811 811 810 809 808 807 805 804 802
805 805 805 805 806 805 804 804 804 804 804 803 802 801 800 799 799 799 799 798 798 797 796 795 794 792 791 789 790 791 792 794 796 795 793 791 789 788 787 786 784 783 782 782 781 780 779 777 775 775 776 778 780 780 781 783 783 784 788 791 791 789 791 795 794 798 798 794 793 790 791 793 792 794 796 795 799 808 812 813 814 812 812 811 810 808 806 804
805 806 806 806 806 805 805 805 804 804 804 803 802 801 800 800 800 799 799 799 798 797 796 795 794 793 791 790 790 791 793 798 798 795 794 791 789 788 787 786 785 783 782 782 781 779 778 775 776 778 777 780 781 783 786 785 784 788 791 792 793 791 793 796 795 800 799 795 794 792 794 793 793 798 801 802 806 811 813 814 815 814 814 814 812 810 808 806
806 806 807 806 806 805 805 805 805 804 804 803 802 801 801 800 800 800 799 799 798 797 796 795 794 793 792 791 792 791 792 798 798 796 794 791 790 789 788 787 785 784 783 782 781 778 777 776 776 778 779 783 785 786 789 786 784 788 792 793 795 794 794 797 798 801 800 797 795 793 794 792 794 801 802 805 809 812 814 815 815 816 816 815 813 811 810 810
807 807 807 807 806 805 806 805 805 804 804 803 802 802 801 801 800 800 800 799 799 798 797 795 794 793 792 793 791 790 795 799 799 797 794 791 791 790 789 788 786 786 784 783 782 779 779 778 779 780 782 786 787 788 790 788 786 789 793 794 795 795 795 797 798 799 798 796 793 791 794 794 795 800 803 807 810 812 814 815 816 817 816 815 814 813 813 813
807 807 807 806 806 806 806 806 805 805 804 803 802 802 801 801 801 800 800 800 799 798 797 796 794 793 793 793 789 792 800 802 800 798 795 793 792 791 790 789 788 787 785 785 783 780 780 782 782 781 783 787 787 789 791 790 791 793 795 794 794 796 796 795 795 796 797 794 791 791 795 797 796 798 805 809 810 812 814 815 816 816 816 816 816 816 815 815
807 807 807 807 806 806 806 806 806 805 804 803 803 802 802 801 801 801 800 800 799 798 797 796 795 794 793 790 789 797 805 803 801 799 796 794 793 792 791 790 789 787 786 785 784 783 783 784 783 780 783 787 790 792 792 792 795 796 796 796 795 795 795 794 793 795 796 794 791 791 795 798 796 798 807 811 811 812 814 815 816 816 816 817 817 817 817 817
807 807 807 807 807 807 807 806 806 805 804 804 803 803 802 802 801 801 800 800 799 798 797 797 796 795 794 791 793 802 806 802 802 799 797 796 794 793 793 791 790 788 787 786 787 787 786 786 785 784 785 788 791 794 794 796 798 797 798 799 796 796 795 791 792 795 794 795 795 793 795 797 798 802 809 811 811 812 814 816 816 816 817 818 818 818 818 818
808 808 807 807 807 807 807 806 806 805 805 804 804 803 802 802 801 801 801 800 799 798 798 797 796 796 795 795 799 806 805 803 803 800 798 797 795 794 793 792 791 790 789 788 790 789 789 788 786 787 789 789 792 795 796 798 798 797 798 796 795 797 796 792 792 793 793 796 797 794 796 801 805 809 810 810 811 812 813 815 816 817 818 818 819 819 819 820
808 808 808 808 808 808 807 807 806 806 805 805 804 803 802 802 801 801 801 800 800 799 798 797 797 796 795 799 805 807 805 804 803 801 799 797 797 796 794 794 793 792 792 791 792 791 790 789 787 790 791 790 794 797 797 798 797 797 796 791 791 795 795 793 793 791 791 796 796 797 799 803 810 812 810 810 811 813 814 816 817 818 819 819 819 819 820 821
809 808 809 808 808 808 808 807 807 807 806 806 805 803 802 801 801 801 801 801 800 799 798 797 798 796 797 803 807 806 805 804 803 801 799 798 798 797 796 795 794 794 793 793 793 792 792 791 789 790 793 793 796 799 796 795 794 792 793 792 790 794 793 793 796 792 792 794 793 797 797 802 813 814 812 812 812 814 815 817 819 819 820 820 820 820 820 821
809 809 809 809 809 809 808 808 808 808 807 806 805 803 801 801 802 801 801 801 800 799 799 798 798 796 799 804 805 805 805 803 803 802 800 799 798 797 797 796 796 795 794 794 794 794 793 792 792 792 795 797 797 797 792 788 788 788 795 798 797 799 795 792 796 796 797 795 789 791 795 803 814 816 815 815 814 816 817 819 820 821 821 821 821 821 821 821
810 810 810 810 810 809 809 809 808 808 808 807 806 803 801 802 802 802 802 802 800 800 799 799 798 797 802 807 806 805 805 804 804 804 802 800 799 798 798 797 796 796 795 795 794 795 794 792 794 794 794 796 796 793 789 791 793 793 800 804 804 806 800 793 795 797 798 797 790 789 794 803 814 818 818 817 817 818 819 821 821 821 822 822 822 821 821 822
811 811 810 810 810 810 810 809 809 809 808 808 807 805 803 803 803 802 802 801 801 801 800 801 800 798 804 809 808 807 808 808 807 805 803 802 801 800 799 797 796 796 795 795 793 793 793 792 795 795 794 798 799 792 794 808 813 808 807 806 806 807 803 798 796 797 798 799 796 793 798 808 815 819 820 819 818 819 820 821 822 822 822 822 822 822 822 822
811 811 811 811 811 810 810 810 809 809 808 808 808 807 805 805 804 803 803 802 801 800 800 802 800 803 811 812 812 814 811 810 808 806 805 803 802 801 800 798 797 795 794 794 794 793 793 792 793 797 802 808 812 807 810 823 825 821 819 815 812 808 805 802 798 801 803 802 799 796 802 811 816 819 821 821 820 820 821 822 822 822 822 822 822 822 822 822
812 812 811 811 811 811 810 810 809 809 808 808 808 808 807 806 805 805 806 804 805 808 813 813 810 816 822 818 817 816 813 811 809 807 806 804 803 802 800 799 797 795 794 797 799 798 797 798 800 808 818 822 826 828 827 829 827 826 824 822 820 813 807 800 798 805 809 806 800 797 803 809 814 818 820 821 820 820 821 821 822 822 822 822 822 822 822 822
812 812 812 812 811 811 811 810 810 808 808 807 808 807 807 807 809 813 813 811 815 821 824 823 820 821 822 820 819 816 813 811 810 809 807 805 804 802 800 799 797 796 801 806 806 802 800 810 821 827 832 832 831 834 833 831 829 828 823 820 816 811 806 799 799 806 811 810 800 797 806 809 813 818 819 821 820 821 822 821 822 822 823 823 823 823 822 822
812 812 812 812 812 812 811 811 810 808 807 807 807 808 809 810 812 818 820 820 825 825 824 825 823 823 823 823 821 818 817 812 809 809 809 807 804 803 802 799 800 803 807 811 810 804 804 819 833 834 834 834 834 835 835 833 831 828 823 818 813 810 809 801 801 807 810 813 802 797 805 808 813 818 819 821 820 822 822 822 823 822 823 823 822 824 822 822
813 813 812 812 812 812 812 811 811 809 808 808 808 809 812 812 813 815 816 821 827 825 824 825 823 823 823 823 822 820 819 816 812 811 810 807 803 806 807 803 807 810 806 806 808 808 815 828 834 834 835 836 835 834 834 833 831 825 819 819 817 813 812 803 802 808 810 811 802 796 800 802 811 818 818 820 820 823 824 823 824 823 823 823 822 823 822 821
813 813 813 813 813 813 813 812 812 811 810 810 810 811 814 814 814 814 813 817 825 827 825 825 824 824 823 823 823 820 820 822 820 817 815 812 809 812 813 810 812 814 811 809 811 816 824 832 833 836 838 837 833 829 828 829 825 821 819 824 823 818 819 813 806 806 805 805 803 801 800 800 812 818 817 821 820 822 824 823 824 823 823 824 822 822 822 821
814 813 813 813 813 814 813 813 813 812 812 812 813 814 815 815 815 815 814 816 822 826 825 826 825 826 826 826 826 823 822 825 825 823 821 818 816 815 817 820 817 816 822 821 819 824 831 834 835 838 837 834 831 826 828 828 818 817 823 828 826 821 823 819 810 805 799 802 809 808 798 793 806 814 813 819 821 821 823 821 822 823 822 823 823 822 822 822
814 813 814 814 814 814 813 814 814 814 814 814 815 816 815 816 815 815 816 817 823 825 825 826 826 826 828 827 827 827 825 826 827 827 825 823 821 819 820 824 821 821 828 826 822 826 832 836 838 837 833 830 829 827 834 835 821 817 824 827 825 822 822 818 813 810 799 797 805 806 797 787 793 801 804 812 819 819 821 820 820 821 821 822 823 822 822 822
814 814 814 814 815 814 814 814 814 815 815 815 817 816 815 816 815 816 816 817 827 832 828 826 827 829 829 827 826 826 826 827 828 828 826 825 825 822 822 823 822 826 831 829 826 829 832 836 837 835 832 828 826 828 836 839 829 821 821 823 823 823 823 817 813 814 803 794 795 800 801 792 786 787 794 806 814 816 818 819 819 820 821 821 822 821 821 821
815 815 815 815 815 815 814 814 815 815 815 816 817 815 816 816 814 817 818 821 833 838 834 830 831 833 832 830 826 825 831 831 827 827 827 827 826 823 823 825 825 829 835 834 830 832 835 835 835 834 829 826 828 832 835 839 837 826 819 822 821 820 820 816 815 814 802 794 793 794 797 796 786 782 791 804 809 813 817 817 818 820 820 820 820 821 821 820
815 816 816 816 816 815 815 815 816 816 816 817 816 815 817 815 815 817 820 837 847 839 838 838 834 835 834 832 829 829 836 835 830 830 828 828 827 823 824 830 831 831 836 835 830 835 839 837 840 838 831 830 834 836 836 840 839 825 819 822 819 819 818 814 815 809 799 799 796 789 792 799 792 783 795 810 806 807 814 816 818 818 818 819 820 820 820 819
816 816 816 816 816 815 816 815 815 816 816 816 816 816 816 814 818 816 820 844 853 841 842 841 835 838 837 833 833 834 837 837 836 835 830 830 830 826 829 835 834 832 833 829 829 838 842 843 846 842 837 837 837 836 836 839 837 824 822 821 814 816 817 814 814 805 800 803 796 789 795 804 800 782 787 805 803 803 812 815 817 817 818 820 819 819 819 818
816 816 816 816 816 816 816 815 816 816 816 816 816 816 816 816 818 821 833 850 852 846 847 844 843 847 843 836 835 837 839 840 841 838 831 832 831 830 835 839 835 832 831 828 832 840 844 848 850 844 842 842 838 836 835 837 833 826 823 816 806 806 806 807 804 798 800 800 794 795 799 809 811 787 781 802 810 814 819 817 817 819 819 820 819 820 820 819
817 817 817 816 816 816 815 815 816 816 816 817 817 816 817 817 816 829 851 858 852 850 849 848 852 852 850 848 845 844 844 843 843 841 837 835 835 834 835 839 838 832 828 829 834 839 842 844 844 844 845 842 837 834 834 837 833 828 824 815 809 803 797 799 796 795 804 802 795 795 797 808 809 790 791 813 822 823 824 821 821 821 820 820 820 821 821 819
817 817 816 816 816 816 815 816 816 817 817 816 817 816 816 822 831 845 857 856 854 857 856 858 857 855 857 855 852 854 852 847 845 847 847 842 842 848 849 851 852 842 831 832 833 832 836 838 840 845 846 843 839 831 830 833 828 827 825 821 822 816 812 815 807 803 808 804 798 797 802 809 798 789 804 818 819 821 822 822 822 820 820 821 821 820 819 818
818 817 816 816 816 816 816 816 816 816 817 816 817 816 816 829 850 863 860 854 858 862 864 866 861 858 859 854 855 860 857 854 850 847 850 844 843 855 859 859 861 853 843 838 835 831 833 836 837 840 842 842 842 834 833 833 828 831 832 831 836 835 840 843 825 817 816 807 800 801 810 811 794 795 811 814 815 820 820 820 819 818 820 820 819 819 818 818
819 818 817 817 816 817 816 816 817 817 817 817 816 816 824 841 860 869 862 856 861 865 866 869 865 859 858 855 860 862 855 856 856 850 848 844 844 852 855 857 861 860 852 843 844 845 840 836 835 837 840 842 842 842 845 842 835 835 834 836 842 844 855 855 836 832 831 819 808 804 811 810 799 804 814 813 816 818 815 816 816 817 819 818 817 818 817 817
819 819 818 817 817 818 817 817 817 816 816 817 816 821 836 853 860 860 859 858 862 866 865 868 866 857 852 855 862 866 861 857 856 854 851 849 852 855 858 862 863 864 858 847 850 852 839 832 837 840 842 842 844 848 850 846 839 834 832 840 846 847 853 850 838 836 837 831 819 806 806 802 798 809 817 816 817 813 813 814 813 816 819 818 818 818 817 816
820 819 818 818 819 818 818 817 816 817 818 816 821 837 851 859 858 856 862 867 868 870 866 863 863 853 846 851 858 864 866 862 857 855 853 857 861 861 864 868 869 870 867 857 855 855 842 832 836 842 845 847 849 849 848 847 841 834 838 849 850 849 852 851 843 835 835 837 822 808 810 805 801 811 815 814 812 810 813 813 812 817 819 819 820 819 817 815
820 820 820 820 820 818 818 817 816 817 816 815 830 852 861 863 865 866 872 875 875 877 868 856 860 860 853 850 853 859 864 863 858 853 851 857 863 866 867 870 874 874 874 870 862 862 860 844 832 838 843 849 854 851 848 849 844 840 850 856 849 847 849 848 849 845 845 846 828 816 824 822 815 814 811 810 811 813 815 814 815 819 819 821 821 819 817 814
821 821 821 821 821 819 818 817 818 816 815 825 847 861 863 866 873 876 878 879 879 879 867 855 861 867 862 855 856 864 866 858 854 852 851 854 861 871 873 871 876 875 877 880 868 864 869 852 834 836 841 848 855 851 846 847 846 846 853 857 854 856 855 849 855 862 862 858 842 829 832 828 818 813 813 816 816 817 817 816 820 823 822 822 820 817 817 813
821 821 822 823 822 820 818 817 818 815 816 834 853 860 864 871 878 880 882 882 881 876 866 862 867 869 866 865 864 869 871 864 858 855 855 856 862 874 879 876 877 876 877 881 871 865 868 858 843 837 835 840 844 842 841 844 847 848 850 855 857 860 862 859 863 869 867 863 856 846 839 827 814 811 817 820 817 818 819 818 821 824 823 823 820 817 815 811
822 821 823 824 822 821 820 817 818 821 829 844 855 861 869 873 878 884 886 885 882 876 869 867 870 868 867 872 872 872 873 869 865 859 857 861 866 874 884 886 883 881 879 880 876 869 865 860 851 838 830 832 838 842 844 845 849 849 852 862 865 862 864 861 858 863 868 869 868 864 850 829 814 813 817 818 818 821 823 821 821 822 822 822 820 817 814 811
821 823 825 825 823 822 819 820 830 838 845 854 860 867 874 874 877 884 888 888 885 880 878 875 873 870 869 871 873 874 873 867 865 862 860 864 867 872 888 897 893 890 883 875 872 872 866 859 854 846 836 834 842 854 856 853 853 854 857 866 870 870 872 870 863 862 869 873 872 873 864 836 817 816 816 818 821 823 823 824 822 822 823 821 819 817 813 809
821 826 828 825 824 822 820 832 849 851 853 864 869 873 877 877 879 882 885 889 886 881 881 879 876 874 872 871 871 874 873 867 864 864 864 868 871 877 893 903 901 898 888 872 869 878 877 865 858 851 841 842 853 861 860 858 858 860 864 867 869 874 878 879 875 869 873 874 867 869 865 834 814 816 819 821 824 823 824 826 824 822 823 821 819 816 812 807
825 829 829 826 825 823 825 841 857 859 866 877 878 878 881 879 878 880 882 883 881 879 877 876 877 877 875 876 874 872 873 870 866 867 867 868 877 889 898 902 899 895 887 873 870 881 880 865 857 848 837 844 860 863 862 864 863 863 870 871 872 879 882 882 883 882 883 878 868 871 864 831 812 816 821 823 825 825 825 827 827 824 821 821 819 814 809 805
829 829 829 829 826 823 830 844 856 865 873 876 875 878 881 880 879 879 879 879 880 880 876 875 878 878 878 880 877 873 874 872 867 870 871 868 879 895 900 900 898 890 884 882 882 884 875 858 854 854 847 846 851 853 857 861 858 856 869 880 880 883 888 887 887 890 886 874 870 879 868 833 815 818 821 824 827 826 827 827 828 826 823 821 818 812 807 803
829 830 831 832 828 828 840 851 854 863 873 872 873 878 877 879 883 882 880 881 883 884 879 877 881 880 880 881 878 874 876 873 869 872 875 872 880 894 898 899 899 891 890 895 897 892 876 858 856 864 868 864 857 854 853 852 851 851 865 884 886 886 890 887 883 886 883 872 873 883 869 837 820 820 821 824 827 827 828 829 828 828 825 822 817 811 806 801
828 832 836 836 835 838 850 856 853 859 868 867 869 876 875 875 881 885 884 882 884 885 881 880 882 881 878 878 875 871 872 875 875 874 874 873 878 888 895 897 898 895 896 901 902 895 878 863 861 868 874 872 864 859 855 853 856 856 861 877 887 890 892 889 887 884 881 880 878 873 863 846 832 826 824 824 827 828 829 829 828 826 823 820 816 810 805 801
831 842 848 845 844 847 853 858 858 860 864 863 866 876 877 873 877 882 884 883 884 886 881 879 881 878 874 875 873 868 868 873 876 877 880 881 881 885 892 895 895 896 899 900 900 894 876 864 870 875 875 872 865 862 859 857 860 860 861 872 884 890 892 893 893 885 883 890 880 859 857 856 843 833 828 825 826 828 828 828 827 824 823 820 815 809 805 801
839 850 857 853 853 857 858 861 865 866 866 867 873 879 877 874 876 877 880 883 884 884 880 876 878 878 877 878 875 869 867 869 872 879 885 886 886 884 886 890 891 894 897 893 893 895 880 868 878 883 878 873 868 863 860 858 860 862 865 871 877 887 893 893 891 886 886 892 879 858 857 858 846 837 832 829 829 829 828 828 827 826 824 820 815 809 804 800
845 851 859 859 861 868 872 872 870 868 868 870 874 879 876 873 876 879 882 881 878 880 880 874 874 878 880 881 878 872 871 870 871 878 883 885 888 885 881 882 886 890 891 888 892 899 885 871 881 892 886 874 864 859 859 860 862 865 869 873 876 881 887 888 886 884 883 882 874 864 861 855 847 840 835 833 833 830 828 828 828 826 824 819 814 808 803 799
842 845 854 858 863 873 878 876 871 865 866 868 869 876 878 874 874 879 884 881 875 876 879 875 876 882 883 883 879 875 876 877 877 881 886 886 886 885 880 878 883 887 889 889 894 897 887 878 885 894 885 866 856 856 858 860 864 868 871 875 878 879 881 883 883 880 879 876 869 866 863 854 845 841 838 836 834 831 829 828 825 824 822 818 813 808 803 800
839 842 845 848 862 874 874 873 871 863 861 865 868 876 879 874 876 878 880 884 882 878 879 879 879 883 885 884 881 878 881 884 883 885 888 887 885 886 885 884 887 887 886 893 898 895 890 884 884 890 882 859 850 855 856 861 873 878 876 875 878 881 882 883 881 879 878 875 868 866 864 854 844 843 842 838 834 831 829 827 825 822 820 817 813 807 804 801
840 843 842 843 859 875 873 869 867 862 866 875 877 880 880 878 883 882 877 881 886 885 885 885 883 881 880 880 883 885 888 890 890 889 890 889 888 890 890 891 894 890 888 896 901 900 899 888 878 887 883 859 852 858 859 867 877 875 873 876 879 882 882 880 878 876 875 874 871 868 861 851 847 847 843 836 832 830 828 828 827 822 817 815 811 807 804 801
Wind_Speed
5 7 8 7 6 5 5 5 6 6 6 7 8 9 8 6 4 4 4 4 4 4 4 5 6 7 7 3 0 3 3 4 10 15 13 11 16 19 21 19 17 15 11 10 9 8 6 5 3 3 5 4 1 1 2 0 1 3 3 4 2 2 4 6 7 7 7 8 10 11 10 8 9 8 7 5 2 2 8 11 13 14 16 18 20 23 23 23
6 8 8 6 5 5 5 5 6 6 6 7 8 8 7 5 4 3 3 3 4 5 5 6 9 10 8 4 4 5 3 3 8 14 11 16 20 21 21 18 16 13 9 9 8 7 5 2 1 4 5 3 1 1 2 1 2 3 3 3 2 5 5 7 8 8 7 8 9 9 8 6 7 8 7 7 5 11 13 13 13 14 16 18 21 23 24 25
7 8 7 6 5 4 5 6 6 6 6 7 8 8 7 5 3 2 2 3 5 7 7 9 11 10 7 3 5 8 7 7 5 11 11 20 24 22 21 16 13 10 8 8 8 7 6 4 2 4 4 1 1 2 3 0 1 2 3 2 4 6 4 8 7 6 6 6 8 7 5 3 6 7 6 6 6 15 14 11 13 14 15 16 18 21 23 25
8 7 6 5 4 4 5 5 6 6 6 8 9 9 7 5 3 2 2 3 6 7 8 10 11 9 6 4 7 9 7 6 4 9 14 24 25 20 16 13 12 9 6 6 6 5 5 4 3 3 2 1 1 2 1 2 2 0 2 3 6 5 3 8 7 5 5 5 7 7 4 2 5 7 8 6 5 11 11 11 13 13 15 15 16 19 22 25
8 7 6 4 3 4 5 5 5 5 6 8 9 9 7 5 3 3 3 4 7 8 9 11 9 6 7 3 6 9 6 4 5 11 21 27 22 14 11 11 12 9 5 4 5 4 4 4 2 2 2 1 2 2 2 3 3 1 4 5 7 5 4 6 5 4 4 5 6 5 3 2 3 7 11 11 9 8 9 12 13 13 14 15 16 18 21 24
7 6 5 4 3 4 5 5 5 6 7 9 8 8 7 5 3 3 3 5 7 8 10 11 6 3 8 9 7 7 3 1 8 16 25 25 14 9 9 10 12 10 6 4 5 4 4 4 4 2 1 2 2 2 4 3 2 1 4 5 6 6 5 4 4 3 3 5 5 4 3 1 6 10 12 14 13 11 11 12 12 13 15 16 18 19 20 21
7 6 5 4 4 5 5 5 5 6 7 8 7 6 6 5 3 2 4 6 7 8 11 12 5 2 2 6 4 4 3 6 12 20 24 19 10 8 9 11 13 11 8 5 4 3 3 3 2 1 2 3 3 4 3 1 1 1 3 5 5 5 5 3 3 1 3 5 5 2 0 3 8 9 10 13 13 13 13 12 13 14 17 18 19 19 20 21
7 5 4 3 4 5 4 4 5 7 8 7 6 6 5 4 3 3 4 6 7 7 10 13 9 2 5 2 3 2 9 10 16 22 21 14 9 10 10 11 13 9 8 9 7 5 4 4 3 1 2 4 2 4 2 1 2 2 3 4 3 3 4 2 1 2 2 3 3 1 4 8 11 11 11 13 12 13 12 12 13 14 16 18 19 19 19 20
6 4 3 4 5 4 4 5 6 7 7 6 5 5 4 4 3 3 5 5 7 7 6 11 14 6 3 6 7 2 9 12 16 19 17 12 10 11 10 10 11 8 8 10 10 7 4 4 5 2 5 6 2 3 2 3 2 3 2 3 4 2 4 1 2 2 1 3 5 2 8 8 9 9 10 12 11 11 11 12 13 13 15 16 16 17 18 18
4 4 4 4 4 4 4 5 6 7 6 5 5 5 5 4 3 3 4 5 6 7 4 5 10 10 6 4 4 4 9 12 14 17 14 12 10 8 10 11 10 8 9 12 13 12 7 4 4 4 6 6 4 3 3 3 2 2 1 2 3 3 3 1 4 4 2 4 8 2 9 7 4 3 6 10 10 10 11 12 12 13 15 15 15 15 17 18
4 4 4 4 3 4 5 5 6 6 5 6 6 6 5 4 3 3 4 4 6 7 5 5 7 7 12 11 6 6 10 11 13 17 14 11 10 9 10 13 12 10 10 13 13 11 10 6 3 2 1 3 4 4 3 3 1 0 2 3 4 4 0 2 5 4 1 3 8 2 8 9 7 6 7 8 8 9 10 12 12 13 13 14 15 14 15 17
4 4 4 3 3 4 5 5 6 6 5 6 6 6 5 4 3 2 2 4 7 8 5 6 8 4 6 12 10 6 10 9 12 16 13 10 11 12 10 12 12 11 11 12 12 10 10 7 2 2 2 2 1 2 3 1 1 1 4 4 5 7 2 4 6 5 0 3 7 3 4 8 10 8 7 6 7 8 10 11 11 11 11 11 13 12 12 15
4 4 3 3 3 4 5 6 5 5 5 6 7 7 6 4 2 1 2 4 7 8 4 5 9 6 4 7 7 9 10 8 11 16 14 10 8 9 10 11 11 11 11 11 10 9 9 8 3 5 4 1 1 1 1 2 3 1 4 3 1 6 2 5 6 7 1 3 4 2 2 5 9 8 6 5 5 7 9 10 10 9 10 10 10 10 11 14
4 4 3 3 3 4 5 5 5 5 6 8 9 9 6 2 1 1 2 5 7 5 4 5 5 4 5 6 5 12 15 10 12 18 17 12 5 5 8 9 10 11 10 8 7 7 8 7 4 6 4 4 3 1 2 4 3 1 2 2 4 2 3 6 5 10 5 2 2 2 3 3 8 8 7 5 5 6 9 10 9 9 8 8 9 9 10 12
4 3 2 3 3 4 5 5 5 6 7 9 12 11 4 1 1 0 2 6 7 5 5 4 3 3 4 6 3 11 17 14 16 18 16 15 8 4 6 6 8 10 9 6 4 4 5 5 3 4 3 1 1 3 2 3 2 5 3 2 6 6 6 4 5 9 9 6 7 4 2 4 8 7 7 6 5 7 9 9 9 9 9 8 8 9 9 10
3 2 2 3 3 4 5 5 5 5 5 7 13 15 6 3 2 1 3 5 9 11 7 5 7 6 4 4 4 9 16 17 17 16 13 14 10 6 4 2 3 4 4 4 2 1 2 3 2 2 4 1 2 3 2 2 5 7 6 5 7 7 7 5 4 7 11 9 8 5 1 3 6 6 6 6 5 6 8 8 8 8 8 8 7 8 8 9
2 2 2 3 3 5 5 4 4 2 2 4 12 19 18 11 5 3 3 3 7 9 8 8 7 2 6 6 6 9 14 15 15 15 13 11 9 8 6 4 3 4 2 1 1 1 2 2 1 1 6 8 8 6 1 5 6 6 7 6 7 8 8 7 2 5 12 10 6 4 3 3 5 6 6 6 5 5 6 7 8 7 7 7 7 7 8 9
2 2 2 3 4 5 4 2 0 1 2 2 5 14 24 24 21 18 12 4 1 3 5 10 8 3 5 10 9 10 13 13 14 16 14 9 8 8 7 4 5 8 5 1 4 5 3 3 3 5 8 9 10 8 4 5 5 6 7 6 7 9 8 9 6 6 11 11 6 1 3 4 5 5 5 5 4 5 6 6 6 6 6 7 7 7 8 9
2 2 3 4 5 6 5 3 3 4 5 4 2 1 8 14 21 26 23 14 7 3 3 8 8 3 3 10 11 13 12 9 10 15 15 12 10 8 6 4 4 4 1 2 7 8 4 4 5 7 8 8 8 7 4 3 4 6 7 5 7 9 7 10 8 5 9 11 7 1 2 4 5 4 4 4 3 4 5 5 5 5 5 6 7 7 8 8
2 3 3 4 6 7 7 6 5 4 5 5 4 4 3 2 6 11 15 15 11 7 6 6 6 5 4 8 12 16 10 5 9 17 20 16 11 8 6 4 1 5 6 3 6 6 4 7 8 6 6 7 7 6 5 4 4 6 7 6 8 8 8 13 9 4 5 7 5 1 3 4 5 3 3 3 3 4 4 4 5 4 5 5 6 7 8 9
2 3 4 5 6 8 9 9 8 7 3 2 2 1 1 1 3 4 4 9 8 6 9 6 4 5 4 4 12 16 6 2 13 20 24 18 7 4 6 6 2 6 6 1 1 3 5 8 7 6 6 6 6 5 5 4 5 5 6 7 9 8 10 15 9 2 3 4 5 4 5 5 6 4 4 4 3 3 3 4 4 4 4 4 6 7 8 8
2 3 4 4 5 6 8 10 10 9 8 8 6 5 3 3 6 6 3 6 6 3 5 5 5 7 4 1 10 14 4 5 14 19 26 22 7 3 6 6 8 8 7 2 1 3 7 8 6 6 5 5 5 4 4 4 5 4 5 7 8 9 11 11 3 3 1 3 4 3 4 5 7 6 5 5 4 4 3 3 3 4 4 5 6 6 8 10
3 3 4 4 4 4 6 9 10 9 11 11 9 7 5 5 7 5 1 4 5 1 3 6 8 11 8 4 12 15 7 8 10 14 23 19 8 5 6 6 9 8 9 9 6 5 6 6 6 4 4 6 5 4 5 5 5 1 6 8 8 10 11 7 2 3 8 7 5 5 7 4 7 6 5 6 4 4 4 3 3 2 4 5 6 7 9 11
3 4 5 4 3 3 4 7 8 10 13 13 11 8 5 4 3 1 2 1 3 2 3 3 4 9 9 4 10 10 7 9 7 11 18 14 6 2 3 4 5 7 8 8 8 8 5 4 5 5 4 5 5 4 7 6 3 2 6 8 9 12 12 10 9 11 12 6 3 7 8 3 7 8 7 7 6 5 4 3 3 2 3 5 6 7 9 11
3 4 4 3 2 2 1 4 6 7 10 9 8 6 4 2 2 2 1 1 2 3 2 1 1 7 7 4 9 6 1 5 7 9 12 10 7 3 1 1 2 5 4 4 5 7 5 3 3 5 4 5 5 4 7 7 6 1 5 9 12 14 14 15 13 11 9 2 4 4 7 3 6 12 9 7 8 7 5 3 1 2 4 6 7 8 10 11
3 4 3 2 1 1 1 1 4 4 4 5 3 2 2 2 1 1 2 2 3 4 4 4 4 8 10 10 11 3 2 3 4 7 9 7 5 2 1 1 0 4 2 2 2 3 4 1 2 5 5 5 4 4 6 6 7 3 5 10 13 12 13 15 12 7 6 6 0 2 5 7 3 9 10 9 9 7 5 3 0 3 5 6 7 9 10 12
3 4 2 2 3 2 1 1 3 3 1 1 1 1 2 1 3 2 3 3 4 4 6 7 5 9 10 12 13 1 2 5 3 7 12 9 6 3 1 4 1 3 2 1 1 2 3 2 3 6 6 5 5 5 5 5 5 4 8 13 13 12 14 13 9 6 6 8 4 3 3 8 7 2 9 10 8 8 5 2 1 4 7 9 10 10 11 14
3 3 2 2 3 4 4 2 2 2 2 1 1 1 3 3 2 1 3 0 4 4 3 4 4 7 9 10 11 6 1 7 4 8 13 10 7 2 2 6 3 2 1 2 1 3 3 4 5 7 6 6 6 5 5 3 4 6 11 14 14 13 14 11 8 7 6 6 3 2 5 8 8 4 7 9 7 7 4 2 2 6 10 11 12 12 13 16
3 3 2 1 1 3 4 3 3 3 2 3 4 3 3 3 1 3 2 1 3 2 0 4 5 6 10 8 8 8 3 4 4 8 11 7 7 5 3 4 3 2 0 1 4 4 2 4 3 5 5 5 6 6 4 5 4 9 13 15 13 11 10 8 7 7 6 5 3 5 9 8 9 8 1 5 5 3 0 3 4 8 11 12 13 14 16 17
3 3 2 0 1 2 3 4 4 3 3 4 4 3 2 2 2 3 1 1 3 2 0 4 4 5 11 6 6 10 9 7 6 7 6 4 7 8 3 1 3 3 1 4 6 3 3 2 1 1 3 4 7 6 4 7 8 11 13 14 11 6 7 6 6 6 6 5 6 9 11 8 8 8 3 2 1 2 1 4 6 10 13 13 13 15 17 17
2 2 1 1 1 1 2 1 3 3 3 2 1 2 1 2 1 0 3 1 2 3 1 3 4 5 9 6 5 10 8 6 8 8 7 5 6 9 5 1 3 3 2 3 4 5 4 2 1 1 1 4 7 6 4 6 10 8 9 11 10 5 3 3 4 4 6 6 8 12 14 10 9 6 4 4 3 3 1 6 9 11 13 13 14 15 16 17
3 2 1 2 1 1 1 2 2 2 1 1 0 1 3 1 3 2 2 0 2 3 2 1 3 6 7 4 4 8 5 4 8 7 6 5 6 8 8 7 5 2 1 3 2 2 4 2 3 4 1 3 6 6 1 4 6 5 8 9 9 7 5 5 6 6 7 8 8 14 16 9 9 5 5 5 4 2 1 4 7 10 12 13 15 16 17 17
5 4 3 4 2 2 3 2 2 1 0 1 1 2 3 1 4 2 1 2 1 1 1 1 4 6 6 4 4 6 2 2 7 7 5 4 4 5 6 9 8 4 2 4 6 4 1 3 3 3 1 2 5 6 3 2 5 7 8 8 8 7 7 7 7 7 9 10 12 16 12 8 9 5 4 4 3 3 2 3 7 11 13 16 18 19 19 19
9 7 6 8 8 6 4 1 1 1 0 2 3 2 2 4 3 1 2 2 0 1 1 1 5 5 3 2 3 4 1 1 4 6 5 3 3 4 4 8 10 5 3 3 3 4 2 1 1 3 2 3 4 4 4 5 4 4 6 6 6 5 5 6 7 8 10 12 15 14 7 7 9 3 4 3 3 3 4 6 10 13 15 18 19 21 22 22
12 13 13 14 14 11 6 2 1 1 2 2 2 1 5 4 1 2 1 1 1 2 2 0 3 4 1 2 1 1 1 1 2 3 4 4 4 4 3 5 10 7 3 3 2 2 5 2 3 3 2 4 4 2 2 5 2 3 4 4 6 6 4 6 8 10 11 11 11 8 4 8 8 3 6 3 3 7 9 13 17 17 18 19 20 21 22 23
10 13 16 19 19 15 9 5 2 1 2 3 1 5 4 1 1 0 1 2 2 3 3 1 2 3 0 1 1 2 0 1 3 2 2 3 3 4 4 3 6 7 4 3 2 3 5 2 3 3 1 3 3 1 2 3 3 3 4 5 8 6 4 6 8 9 11 10 8 7 7 10 9 2 5 2 8 12 15 20 21 19 20 20 20 20 22 23
6 8 12 19 21 16 10 5 2 1 2 1 4 5 1 1 2 3 3 2 1 2 4 2 1 2 2 1 1 3 3 1 2 2 0 2 2 3 4 2 2 5 4 2 1 2 4 6 1 1 2 3 1 2 4 3 4 3 4 7 8 4 4 4 7 8 9 8 7 10 12 12 11 5 1 6 15 17 20 23 20 18 20 20 21 24 26 26
4 2 6 17 21 15 7 4 2 2 1 5 6 4 1 1 3 3 2 2 1 1 3 2 2 2 2 3 2 3 5 3 3 3 1 1 1 2 4 2 1 3 3 2 2 2 2 6 1 2 2 3 4 1 3 5 6 5 3 4 5 2 2 5 6 6 9 9 9 12 14 11 9 6 7 13 18 20 24 25 19 19 20 20 23 27 28 27
3 2 2 15 18 10 6 3 0 2 3 6 4 3 2 3 3 3 3 2 1 2 2 3 2 1 1 3 3 2 3 4 5 4 2 2 3 3 3 3 1 3 3 2 3 2 2 4 0 1 5 0 6 2 3 3 5 6 4 3 3 2 4 5 4 4 8 10 10 13 13 8 7 9 11 14 18 22 26 24 18 19 23 24 25 26 25 25
3 2 2 15 14 7 10 7 2 3 5 5 3 3 3 3 4 4 3 2 1 1 3 3 2 2 1 2 2 2 2 3 4 4 3 3 3 3 4 4 4 5 4 3 3 3 2 4 3 5 8 5 2 2 5 4 2 1 1 5 4 3 3 5 3 2 4 8 9 12 12 8 8 10 11 15 19 22 24 22 18 20 26 28 27 26 25 24
2 2 3 14 8 3 6 9 6 5 4 5 5 4 2 2 3 3 2 2 2 1 1 3 2 2 3 2 1 1 2 3 3 3 2 3 3 3 3 4 4 5 5 3 3 2 2 3 5 7 8 5 1 3 3 4 3 3 3 3 3 4 4 6 5 1 2 7 9 10 13 12 8 5 8 15 19 21 22 21 21 24 27 28 27 28 27 25
1 2 4 12 5 2 4 6 5 4 4 4 3 3 2 2 1 2 2 1 1 1 1 1 1 2 2 2 2 2 3 3 2 3 2 2 4 4 3 3 4 4 4 2 1 2 2 3 5 7 7 2 4 4 3 5 6 5 3 2 2 3 3 4 7 6 5 8 10 10 13 12 6 3 9 16 19 21 21 21 23 25 26 27 28 30 29 26
2 3 6 12 6 3 4 7 4 5 5 2 0 2 2 2 2 1 1 1 1 1 1 0 1 1 1 2 2 1 2 2 2 2 1 1 2 2 2 2 3 3 3 2 1 2 1 2 5 7 5 2 5 4 3 3 4 4 4 2 2 1 1 3 5 5 6 9 9 10 12 12 8 8 14 18 21 21 19 20 24 24 24 26 29 30 28 27
2 2 5 14 11 3 2 5 4 4 4 2 2 3 1 1 2 1 1 1 1 1 1 1 1 1 1 1 2 1 1 1 1 0 0 1 1 2 1 1 2 2 2 2 2 2 1 2 5 7 6 3 0 0 0 2 3 1 4 4 3 2 1 4 4 2 5 9 10 11 12 12 12 16 19 21 22 22 21 23 25 24 23 24 26 28 27 27
1 2 2 13 17 9 3 2 4 6 4 3 5 3 1 2 2 2 2 2 1 1 2 1 1 1 1 1 2 2 1 2 1 1 1 0 1 3 2 2 2 2 3 2 3 3 2 3 4 5 6 7 7 6 5 5 6 4 3 6 3 2 1 2 5 5 7 11 12 11 13 16 21 25 26 24 23 22 23 26 25 23 24 25 26 27 26 26
0 3 2 5 11 9 4 2 3 7 5 3 4 1 1 2 2 0 1 1 1 1 1 0 0 2 2 2 3 3 2 2 2 1 1 1 1 2 3 3 3 1 2 1 3 2 2 3 1 3 3 7 9 10 11 10 10 10 6 1 5 3 1 2 4 7 10 13 12 11 13 21 27 28 27 26 23 23 25 27 25 24 24 26 28 28 26 26
1 2 2 1 3 5 5 4 4 3 2 0 1 2 1 2 2 1 0 1 1 1 1 0 0 1 1 2 3 3 2 3 2 1 1 1 1 1 3 3 2 2 2 2 3 2 3 3 1 2 5 10 12 14 14 12 11 13 11 5 2 4 3 3 6 9 11 11 12 15 20 24 25 27 28 26 24 25 26 26 25 25 25 26 27 28 29 28
2 2 1 2 1 2 3 2 3 3 3 2 1 1 1 1 1 0 1 1 1 1 1 1 0 1 2 3 3 3 4 3 3 2 1 2 1 1 3 3 2 3 3 2 2 0 4 3 2 2 8 13 14 14 12 11 11 11 11 8 3 4 4 6 10 11 10 10 14 22 27 25 23 25 26 25 26 28 27 25 24 25 26 28 30 30 30 29
2 4 2 3 2 3 2 2 1 3 4 3 2 1 1 1 1 1 1 1 1 1 1 2 1 2 1 2 3 4 5 4 2 1 0 1 2 2 3 2 2 3 2 1 2 1 2 1 2 1 9 13 12 10 8 10 11 9 8 6 3 3 5 9 12 12 12 15 18 23 27 25 20 20 23 25 27 27 25 24 25 25 27 29 31 30 29 29
1 3 2 2 4 4 2 2 2 1 2 1 1 1 1 0 1 1 1 1 1 1 0 3 3 2 1 2 3 4 4 5 5 3 0 1 1 2 2 1 1 2 1 1 2 1 1 1 2 0 7 9 5 5 8 9 9 8 5 4 3 5 7 9 11 12 13 16 20 23 24 20 15 16 22 25 25 25 26 28 27 26 28 31 30 29 28 28
4 4 4 4 5 2 2 0 2 1 2 1 1 1 0 0 1 1 1 0 1 2 2 3 3 1 1 2 4 4 4 6 6 4 0 1 2 2 1 3 3 1 1 2 1 2 2 2 1 1 6 6 3 9 13 7 2 2 5 5 4 6 6 8 10 11 12 17 22 21 17 13 13 18 23 25 27 29 30 29 27 26 28 28 27 28 28 28
6 4 1 2 4 1 2 0 1 1 1 2 2 1 0 1 2 1 0 1 1 1 3 3 3 2 2 2 3 3 5 5 4 3 2 1 1 3 3 4 4 2 1 2 0 1 2 3 2 3 5 6 7 14 14 4 2 2 3 4 3 5 9 12 12 14 15 16 16 14 12 14 17 21 24 27 30 32 30 26 26 27 28 26 26 28 29 28
Wind_Direction
114 121 123 123 116 102 85 68 61 51 45 38 31 28 24 31 44 55 50 41 36 17 3 357 349 341 336 333 175 114 80 57 59 51 49 19 346 342 342 340 333 330 324 317 315 298 271 238 228 238 228 205 225 132 161 83 321 247 244 258 283 359 15 18 7 5 344 335 343 346 0 352 343 357 355 329 248 354 16 28 20 24 33 27 23 19 19 21
121 123 125 125 113 97 78 64 55 46 38 28 21 17 14 22 38 59 47 30 17 0 355 351 345 335 323 304 219 193 234 282 50 51 35 358 344 341 341 341 337 334 330 322 326 324 311 320 328 236 224 184 144 188 183 148 282 260 280 268 13 31 32 28 13 11 358 337 331 341 1 3 356 349 346 339 16 41 28 26 27 33 35 31 30 29 33 36
125 125 126 123 107 88 70 60 50 41 30 19 14 11 13 23 38 55 38 16 2 353 353 350 349 341 322 304 213 202 236 258 30 39 9 346 340 339 339 342 343 341 336 324 325 328 328 336 312 250 227 171 123 205 195 77 297 262 300 284 53 29 42 45 24 18 8 338 328 338 343 4 22 1 343 328 27 51 37 25 27 34 34 34 37 36 40 42
128 128 126 118 98 77 66 55 45 34 21 11 9 11 17 29 47 49 32 7 357 354 356 354 353 350 335 299 218 202 236 253 19 13 344 339 337 338 340 349 351 344 332 311 310 304 297 293 269 252 224 157 123 184 156 50 333 329 343 7 44 5 29 46 29 27 5 334 327 324 317 21 47 21 11 4 54 59 42 36 37 40 41 39 41 41 43 44
131 128 123 108 86 72 62 49 39 24 12 8 8 15 23 37 54 46 25 358 356 356 359 0 1 8 12 357 185 182 227 248 18 350 337 338 339 342 350 1 357 354 347 303 302 286 269 262 218 227 216 136 146 187 66 44 331 28 55 39 40 2 29 42 25 38 352 318 318 331 12 42 69 46 38 48 69 64 50 55 52 51 49 46 46 44 44 45
128 123 115 101 84 65 51 42 30 13 6 5 8 19 27 39 49 43 16 358 0 2 1 3 11 50 46 56 133 171 218 8 8 340 336 340 348 0 4 8 7 12 4 304 287 275 265 246 209 220 179 97 62 63 48 43 316 325 84 68 54 32 40 33 24 46 321 331 356 17 46 94 92 72 60 65 73 76 72 70 65 60 55 52 51 47 46 45
123 118 111 98 70 50 43 35 18 5 3 3 12 26 30 39 46 35 6 3 6 5 7 7 3 207 85 57 130 160 65 33 355 338 338 349 10 14 11 14 14 16 4 342 319 314 324 289 190 101 80 93 48 51 42 36 1 342 105 98 76 46 45 30 33 93 285 341 8 353 200 104 89 84 77 76 81 86 84 78 72 66 59 55 53 49 48 46
121 114 100 73 47 45 40 22 7 1 2 4 20 29 29 36 30 13 1 9 10 8 21 23 22 242 225 283 255 107 50 5 342 340 345 3 22 17 18 11 5 7 18 21 3 344 335 2 50 332 39 80 46 58 36 289 71 53 99 123 127 54 47 55 92 179 260 325 322 266 113 90 88 90 80 78 87 92 90 83 75 68 62 56 52 50 48 46
115 97 67 52 46 47 30 11 5 1 3 12 28 29 27 25 6 3 2 7 6 6 26 31 33 30 251 259 261 45 29 348 340 343 353 15 17 19 23 12 3 7 29 31 20 18 6 16 33 17 70 71 22 49 347 286 65 58 91 143 157 95 49 63 97 116 197 344 337 124 113 103 105 97 79 78 88 94 90 82 74 67 62 57 54 51 48 47
96 68 54 57 52 43 19 7 5 3 9 18 22 16 10 7 357 356 358 8 8 5 4 4 21 26 14 303 251 69 9 343 351 351 2 19 14 22 26 25 16 10 34 38 30 29 23 23 38 49 80 76 51 40 331 322 48 55 134 164 171 123 66 67 64 73 166 6 354 65 107 102 109 94 79 84 90 95 89 77 71 65 62 58 56 52 48 47
74 61 65 64 53 30 8 5 6 5 9 7 4 360 353 346 341 342 351 12 9 7 8 351 1 29 40 39 61 59 357 345 360 359 6 18 29 39 33 38 29 15 37 41 33 25 18 19 6 356 89 108 75 64 35 32 30 104 168 184 195 195 284 55 53 40 172 30 354 353 106 87 65 64 79 88 95 94 86 77 69 63 62 59 56 53 49 47
68 72 74 62 40 13 4 5 4 5 3 2 4 357 342 323 320 342 6 19 9 10 14 16 25 27 42 48 53 26 351 353 1 4 11 15 33 42 39 48 39 28 40 45 37 24 15 7 321 39 70 175 160 95 84 82 248 155 199 204 178 197 225 49 43 11 297 57 3 316 129 84 59 62 75 89 102 95 83 77 69 63 60 57 56 54 50 46
77 81 74 53 21 4 6 4 6 17 19 24 21 3 342 327 337 17 11 9 4 9 19 54 58 44 28 54 53 18 6 10 4 8 19 16 21 39 45 51 46 42 50 58 46 25 19 14 62 92 42 331 112 66 84 194 214 179 228 262 152 199 175 59 23 356 22 117 33 289 201 85 67 63 63 79 102 96 82 73 65 64 59 55 54 53 52 46
88 84 65 32 10 6 8 9 26 46 51 45 24 2 345 345 86 61 17 6 358 12 56 81 76 49 52 76 62 21 16 21 13 10 19 21 19 52 46 45 52 53 54 66 55 34 27 17 69 103 34 21 80 318 242 174 187 324 236 305 7 325 42 74 34 10 36 91 355 256 235 91 74 59 56 64 82 89 82 72 64 62 58 54 53 48 50 45
94 82 49 19 8 11 17 33 64 79 70 50 24 12 7 100 111 206 7 13 21 50 66 53 3 332 71 92 58 9 12 17 13 6 13 19 17 41 39 43 60 57 53 61 58 39 24 12 53 91 61 107 182 266 247 144 76 14 10 359 11 360 355 55 76 30 21 343 329 310 240 112 81 56 55 61 72 83 80 75 67 61 56 51 48 43 43 40
94 71 38 19 14 20 35 64 97 100 74 50 36 37 57 101 85 68 36 41 59 61 49 19 346 340 55 61 344 354 11 12 4 358 7 17 20 21 7 28 63 42 43 44 49 44 348 33 72 28 45 77 306 308 277 49 38 20 13 5 6 353 334 356 92 51 14 344 340 354 1 114 86 65 59 58 69 82 80 77 67 60 56 48 45 40 35 33
86 66 38 31 32 34 52 85 121 121 44 51 50 55 68 71 64 66 41 62 66 52 48 24 345 8 69 29 346 353 2 358 357 359 359 6 21 17 338 293 295 305 282 277 354 306 305 351 178 16 36 33 9 348 352 27 13 6 5 360 356 346 338 341 7 37 8 346 338 18 70 98 90 82 67 58 65 77 79 74 67 62 55 48 43 36 31 28
84 66 47 53 49 45 59 78 164 278 340 19 56 66 71 67 65 63 45 31 3 348 43 18 356 133 71 17 359 345 341 343 357 3 357 352 6 4 342 318 295 287 257 199 20 7 348 6 37 51 37 28 21 14 44 41 359 356 356 348 345 337 336 340 343 15 1 340 320 6 111 117 113 106 79 69 70 78 80 74 68 60 52 48 41 32 29 24
81 65 65 69 58 52 52 23 338 297 286 283 271 81 81 70 65 57 41 41 53 34 50 3 359 110 34 6 352 335 325 320 352 8 7 360 343 329 324 328 318 320 354 82 34 18 10 37 37 39 27 13 19 19 25 14 331 333 328 319 323 319 322 332 343 37 6 332 304 276 145 146 139 133 105 91 82 85 85 78 70 57 49 41 34 28 21 16
76 70 83 77 64 60 50 29 10 339 283 252 245 255 211 132 64 49 34 44 59 54 65 23 15 67 26 359 350 345 328 300 13 20 11 357 325 309 329 321 325 48 49 35 28 15 7 53 46 25 7 352 2 5 341 308 294 306 310 317 321 321 325 324 335 61 35 331 297 197 155 170 158 152 137 129 113 101 92 81 71 51 45 33 27 22 13 12
81 83 96 85 75 70 53 38 29 29 46 149 185 252 291 358 55 87 51 63 67 48 64 49 23 58 22 342 354 352 328 351 27 20 8 359 318 288 345 347 43 56 38 331 33 29 32 55 43 9 353 330 331 340 327 298 271 281 315 336 333 338 329 315 319 73 70 330 286 196 185 194 167 162 158 158 159 120 88 79 68 45 41 25 19 14 5 4
81 95 108 99 92 78 53 42 37 49 75 86 89 81 61 55 101 131 152 90 78 18 58 50 33 47 29 11 359 344 317 18 20 14 4 1 12 31 351 14 60 48 27 29 176 59 55 53 22 358 346 312 289 298 306 283 265 275 340 351 339 342 330 311 298 138 193 294 277 231 244 221 164 166 174 166 163 132 99 82 69 39 32 16 10 6 356 353
85 115 125 118 114 85 53 45 41 58 76 76 72 75 89 99 117 145 231 94 91 355 41 38 34 30 19 40 0 349 27 31 4 6 357 354 23 36 349 28 61 51 39 43 55 57 58 45 9 342 310 307 289 308 327 287 254 264 12 359 335 334 328 310 300 279 282 284 280 281 281 230 162 175 185 172 167 145 136 120 100 45 25 13 0 359 353 348
108 139 140 129 122 95 54 42 39 59 71 73 74 79 112 120 127 182 300 120 95 70 75 47 41 28 19 23 349 350 59 49 8 0 354 355 10 330 340 26 41 59 54 40 66 78 68 47 358 312 278 308 301 343 6 332 292 101 44 2 324 319 313 294 296 300 292 276 236 267 279 231 180 197 193 174 175 166 166 165 130 69 20 6 351 352 351 344
130 147 141 126 115 95 47 34 36 60 70 69 72 84 105 103 218 252 288 193 54 47 106 129 75 26 10 339 349 345 104 54 31 1 350 360 352 299 81 5 337 58 60 6 65 86 63 60 338 317 304 316 313 6 23 346 321 78 52 352 312 305 302 290 296 307 303 280 158 233 297 317 187 197 192 170 177 179 175 181 152 21 2 356 346 342 344 342
131 139 131 87 73 333 276 39 38 58 80 63 59 122 106 51 192 189 275 223 54 18 356 1 344 6 2 343 350 330 198 37 30 4 1 7 348 255 116 1 2 62 58 5 50 92 45 59 274 314 311 320 347 29 37 357 319 310 3 330 299 295 294 291 302 309 304 316 205 193 306 327 268 202 187 173 178 180 175 187 314 358 351 348 342 339 341 341
119 122 108 57 41 356 312 77 35 31 73 39 340 194 151 89 114 98 273 231 63 359 342 359 339 354 359 344 348 1 165 336 324 25 17 1 340 257 303 25 62 61 54 346 39 77 15 355 347 337 330 359 11 11 18 359 309 309 340 320 296 294 289 287 300 281 280 310 285 184 312 323 319 241 163 166 182 180 185 232 342 0 353 350 349 347 344 340
116 116 101 56 41 38 56 70 42 48 55 52 77 146 171 173 147 200 274 265 33 340 336 1 338 352 343 332 4 64 126 318 330 21 1 350 351 306 56 43 29 50 65 257 27 66 5 6 15 347 354 22 1 337 335 310 278 309 322 309 291 284 281 280 282 271 289 310 255 155 6 329 315 329 139 162 202 195 197 305 343 351 355 356 351 346 341 338
122 128 111 57 17 37 45 46 71 112 101 99 102 103 152 159 204 251 260 92 14 350 121 349 341 348 330 321 21 45 31 2 16 347 337 3 34 29 64 36 350 351 329 15 58 76 47 32 4 331 2 6 328 317 291 239 266 309 305 296 283 259 256 261 258 270 287 290 290 13 5 337 305 311 139 169 217 209 284 326 339 350 354 352 346 342 339 338
134 148 151 55 331 5 12 41 73 111 112 108 97 70 133 181 237 242 35 41 356 8 128 353 345 319 330 346 41 21 17 32 9 333 342 35 37 36 75 232 309 310 231 97 86 107 108 70 302 336 12 316 296 289 246 228 261 295 301 305 302 262 236 237 244 276 280 289 342 4 358 339 302 308 0 106 156 122 24 338 347 351 348 345 344 342 337 335
119 141 198 297 275 307 327 66 92 110 104 104 84 42 206 222 289 348 69 48 327 357 349 355 353 331 350 16 33 5 10 24 2 357 15 26 22 26 35 339 316 292 216 124 113 142 150 163 158 129 304 302 292 269 211 226 258 289 321 331 333 323 285 260 276 302 298 314 347 349 344 325 289 306 56 101 130 134 28 349 346 341 341 342 340 337 335 334
77 48 4 348 268 322 24 132 134 123 95 7 54 277 241 209 33 36 63 3 276 353 16 345 349 352 350 353 15 2 354 4 5 10 8 2 28 33 33 26 353 304 66 35 353 171 162 152 126 148 210 335 319 305 179 213 265 330 350 348 349 344 349 339 330 336 315 312 332 337 338 316 287 340 82 133 146 120 11 343 335 336 341 340 337 336 337 336
55 27 14 22 41 66 68 126 144 127 104 307 229 248 256 75 56 50 349 336 306 4 15 287 315 323 316 319 12 360 317 335 355 360 356 347 33 63 70 47 15 333 343 349 333 331 140 136 134 150 142 12 332 337 9 322 331 7 3 358 0 351 346 332 327 332 313 308 318 324 327 302 299 346 97 130 94 61 349 324 334 344 344 340 341 341 338 332
65 52 50 49 49 47 42 92 145 165 209 257 237 257 45 69 76 146 264 312 354 343 323 321 312 299 307 15 16 340 311 111 352 346 353 359 33 54 66 43 23 0 296 303 348 338 294 202 69 45 33 2 358 13 354 314 325 24 18 3 1 353 334 314 317 323 310 306 310 312 316 312 316 3 90 69 46 2 338 339 340 344 343 342 343 340 334 329
69 58 54 46 36 27 20 10 247 234 267 266 242 46 63 85 156 200 234 324 35 344 321 44 307 281 175 103 98 1 347 73 13 353 10 24 30 19 11 11 11 6 319 316 33 317 283 260 82 61 12 357 27 69 300 298 303 15 13 3 355 347 310 284 291 302 302 300 304 310 317 311 318 65 97 70 353 335 337 334 333 335 338 340 339 335 332 330
61 50 42 32 21 14 8 352 329 297 276 267 89 62 60 122 196 241 31 19 20 343 313 248 287 296 326 115 116 73 107 281 335 325 67 63 48 28 23 14 4 1 351 344 9 346 311 299 111 103 76 52 44 43 349 332 316 336 358 351 332 315 275 281 292 299 303 298 299 315 315 307 314 26 130 105 345 338 329 326 330 334 335 337 336 333 332 331
40 48 37 20 11 8 6 6 355 243 262 340 78 76 67 210 33 27 37 31 42 330 301 277 345 343 343 345 51 20 352 292 324 311 116 102 80 35 19 37 15 351 359 351 338 39 319 297 265 122 68 79 47 20 62 31 332 340 10 345 319 271 209 283 304 310 310 301 298 311 313 309 310 315 116 347 343 338 330 329 334 336 336 336 334 332 331 330
5 60 42 12 5 5 15 55 58 257 156 68 81 104 118 59 49 36 31 16 8 262 292 323 20 15 329 329 14 359 336 343 352 336 358 23 33 29 357 10 61 2 1 316 308 57 297 296 264 141 31 98 165 209 80 64 44 77 93 4 338 301 294 317 318 317 311 307 303 307 310 302 298 320 345 336 335 336 334 333 334 335 337 336 332 331 331 329
337 222 46 2 0 17 49 85 195 294 94 84 90 119 77 64 72 52 27 4 304 275 329 14 19 14 345 337 348 2 348 355 347 334 357 4 5 35 12 354 355 0 358 301 316 4 283 290 153 179 326 265 174 232 324 37 70 113 134 43 20 333 315 312 304 298 307 311 310 310 309 296 298 328 333 326 331 336 334 332 331 331 332 331 331 331 330 329
314 205 39 354 355 58 69 69 66 20 65 78 74 82 58 77 94 68 38 3 337 324 357 20 9 341 6 346 340 1 351 346 335 328 357 10 4 48 47 16 336 341 343 282 281 328 279 260 273 310 321 304 192 20 352 349 17 109 22 16 9 342 316 299 274 212 305 310 311 311 303 291 304 320 322 326 335 337 334 333 331 328 328 328 329 330 329 328
294 162 18 350 352 115 58 54 50 25 62 71 65 74 41 57 95 86 82 5 343 59 358 358 6 355 349 344 11 6 323 314 326 328 350 23 18 34 55 24 336 327 323 270 239 327 320 269 282 308 317 319 66 65 19 10 24 15 6 21 19 357 339 319 318 41 323 301 301 301 293 290 301 321 330 333 335 334 333 332 329 328 328 328 329 329 327 326
328 114 349 347 19 97 23 59 47 13 72 69 49 75 38 34 91 91 117 169 275 201 208 310 6 3 353 351 1 3 323 303 323 339 349 28 25 27 48 13 320 296 298 289 133 63 329 277 285 298 306 352 86 92 63 64 78 75 59 85 75 17 356 327 318 319 312 295 293 295 287 285 298 349 336 332 331 331 333 333 330 327 326 327 328 327 325 325
47 87 355 347 346 308 11 76 66 32 70 81 313 76 33 35 94 126 164 179 237 260 249 197 1 358 35 10 327 342 343 292 296 340 350 27 52 64 62 342 299 274 278 292 84 80 281 271 296 302 306 99 119 119 110 114 111 103 100 99 93 69 314 283 290 308 306 293 299 305 290 283 303 328 325 326 328 329 333 336 332 328 325 325 327 326 325 325
60 110 23 9 5 318 1 77 101 88 86 117 116 91 57 45 48 48 81 40 25 312 306 44 54 355 44 333 280 309 348 280 255 121 301 347 98 133 146 252 279 309 351 357 1 359 325 321 332 328 331 344 37 16 178 216 275 333 114 112 110 120 200 257 260 272 284 295 310 306 288 285 304 316 318 324 329 329 332 334 332 328 325 325 325 325 325 325
83 127 61 24 32 53 75 59 113 121 120 122 103 78 101 101 48 356 30 42 43 335 319 52 60 294 283 250 235 230 251 257 263 172 176 204 132 152 165 196 246 313 30 18 315 316 304 314 349 355 341 331 322 316 314 311 311 314 123 131 137 109 99 280 291 286 288 307 309 288 281 295 306 312 317 324 330 331 331 332 330 327 325 324 324 325 325 324
11 59 49 21 35 53 68 28 78 117 131 136 111 68 318 112 105 37 358 30 100 333 304 128 226 253 232 250 254 241 221 219 251 286 239 209 147 139 155 178 235 274 49 347 279 281 280 271 358 29 308 293 293 295 303 309 303 297 302 134 135 121 107 280 294 292 298 308 298 278 289 302 307 312 317 323 330 331 331 331 330 328 327 325 324 323 323 325
10 53 29 17 50 59 72 48 37 89 116 301 100 102 69 89 114 145 313 7 104 282 278 206 280 282 320 318 285 268 256 225 212 277 297 278 322 103 164 186 226 206 174 224 226 242 286 255 116 34 280 269 277 284 290 296 293 295 304 311 144 144 171 224 261 284 302 307 295 296 307 307 306 311 316 322 330 331 330 332 331 329 327 324 321 320 322 325
33 99 10 325 24 75 82 46 26 64 65 31 77 99 70 105 116 116 87 108 170 230 246 211 121 30 10 332 305 310 318 282 211 192 259 275 288 206 186 198 188 166 179 202 161 50 298 264 104 356 282 278 281 278 278 286 290 294 300 299 268 175 197 251 266 280 296 292 288 300 308 306 304 310 317 324 329 328 329 331 330 327 325 322 321 321 323 326
60 106 73 340 37 75 44 354 358 79 67 53 97 84 8 136 128 39 69 211 209 169 240 285 28 52 357 312 312 323 331 317 276 253 241 237 264 248 218 212 165 160 211 264 78 64 286 288 82 309 283 286 280 267 273 286 290 292 289 278 248 218 256 277 282 288 287 278 281 296 303 302 303 311 318 324 325 324 326 327 327 326 325 324 323 323 325 328
130 128 116 92 90 74 27 325 296 103 84 37 88 78 355 301 116 86 116 274 284 119 298 320 0 19 314 313 310 312 326 314 300 301 242 186 274 265 248 323 69 139 210 357 39 16 325 10 86 240 290 291 274 272 290 296 300 295 257 203 224 274 285 290 295 300 297 289 293 302 302 299 307 319 319 319 321 323 325 327 328 327 326 325 324 324 326 328
95 117 141 120 93 27 343 27 297 302 94 36 37 98 252 334 72 80 136 227 321 5 7 348 346 317 239 276 289 309 340 322 308 319 275 221 320 347 7 8 4 294 155 75 13 333 327 303 157 322 303 303 345 327 317 325 0 255 217 208 250 283 302 308 304 305 306 303 305 306 301 300 317 324 319 318 322 325 327 329 329 326 323 322 324 326 327 327
101 101 133 100 90 14 332 44 280 307 69 31 46 92 204 73 67 325 217 155 216 355 13 349 325 299 252 250 290 336 356 344 339 6 19 260 20 46 52 46 32 5 34 94 27 335 323 301 322 356 307 300 333 329 320 326 126 192 197 192 240 302 318 315 309 307 306 305 305 303 303 312 322 325 323 323 325 326 327 328 326 322 321 322 325 327 328 327